Regional Weather Roundup
Issued by NWS

Home | Current Version | Previous Version | Graphics & Text | Print | Product List | Glossary On
Versions: 1 2 3 4 5 6 7 8 9 10 11 12 13 14 15 16 17 18 19 20 21 22 23 24 25 26 27 28 29 30 31 32 33 34 35 36 37 38 39 40 41 42 43 44 45 46 47 48 49 50
012
ASUS45 KBOU 091307
RWRCO

WEATHER ROUNDUP FOR COLORADO
NATIONAL WEATHER SERVICE DENVER/BOULDER CO
600 AM MST TUE FEB 09 2016

NOTE: "FAIR" INDICATES FEW OR NO CLOUDS BELOW 12000 FEET WITH NO
SIGNIFICANT WEATHER AND/OR OBSTRUCTIONS TO VISIBILITY.

COZ001>005-013-030-031-091400-
...NORTHWEST COLORADO...

CITY           SKY/WX    TMP DP  RH WIND       PRES   REMARKS
CRAIG          HAZE      -7 -12  79 CALM      30.55R VSB 3/4
HAYDEN         CLOUDY    16   9  73 E15       30.52R WCI   1
MEEKER         CLOUDY     7   4  87 NE5       30.52S WCI  -2
MOUNT WERNER   NOT AVBL
STEAMBOAT SPGS   N/A      5   2  87 CALM      30.54R
WALDEN         CLOUDY     5   1  85 CALM      30.49R
$$

COZ006>008-011-091400-
...WEST CENTRAL VALLEYS...

CITY           SKY/WX    TMP DP  RH WIND       PRES   REMARKS
GRAND JUNCTION CLOUDY    16  15  96 W3        30.53R
MONTROSE       CLOUDY    16  10  77 SE9       30.54S WCI   4
EAGLE          CLOUDY     9   7  92 CALM      30.60S
RIFLE          CLOUDY    11   7  84 S5        30.55R WCI   3
DELTA          CLOUDY    21  17  84 NE3       30.55R
NUCLA          CLOUDY    21  14  73 E6        30.53S WCI  14
$$

COZ017>023-064>068-091400-
...SOUTHWEST COLORADO...

CITY           SKY/WX    TMP DP  RH WIND       PRES   REMARKS
DURANGO        CLOUDY    11   8  88 NE6       30.42R WCI   1
CORTEZ         CLOUDY    17  12  80 E9        30.44R WCI   6
PAGOSA SPRINGS CLOUDY    14  11  87 E3        30.42S
TELLURIDE      CLOUDY    24   3  39 CALM      30.50S
WOLF CREEK PAS CLOUDY    28 -17  13 N22       30.52S WCI  15
$$

COZ009-010-012-014-032>034-037-058>063-091400-
...CENTRAL COLORADO...

CITY           SKY/WX    TMP DP  RH WIND       PRES   REMARKS
ASPEN          CLOUDY    14   8  77 SW8       30.50S WCI   3
BUENA VISTA    CLOUDY    30  13  48 NW23      30.42S WCI  17
COPPER MTN     CLOUDY    23   3  42 W14       30.50R WCI  11
BERTHOUD PASS  FAIR      10   1  67 NW29G37   30.44F WCI -11
COTTONWOOD PAS CLOUDY    32  -4  21 NW9G18    30.45R WCI  24
GUNNISON       CLOUDY    -9  -9 100 CALM      30.59R
KREMMLING      FOG      N/A N/A N/A CALM      30.58R VSB 1/4
LEADVILLE      CLOUDY    13   9  84 NE10      30.47R WCI   0
MONARCH PASS   CLOUDY    21   1  42 MISG      30.58R
SALIDA         NOT AVBL
SUNLIGHT       CLOUDY    23  16  74 N7          N/A  WCI  15
WILKERSON PASS CLOUDY    28  -9  19 NW9G17    30.47R WCI  20
$$

COZ069>075-091400-
...SAN LUIS VALLEY/SANGRE DE CRISTO MOUNTAINS...

CITY           SKY/WX    TMP DP  RH WIND       PRES   REMARKS
ALAMOSA        CLOUDY    10   6  84 W6        30.43R WCI   0
LA VETA PASS   CLOUDY    23  12  63 W3        30.42R
SAGUACHE       CLOUDY    27  14  59 NW23      30.42S WCI  12
$$

COZ035-036-038>040-091400-
...NORTHERN COLORADO FRONT RANGE...

CITY           SKY/WX    TMP DP  RH WIND       PRES   REMARKS
DENVER INTL AP CLOUDY    32  17  54 SW14      30.29R WCI  22
DMNS CITY PARK   N/A     29  18  65 S9        30.30F WCI  20
AURORA         PTCLDY    30  17  60 S13       30.30S WCI  20
FRONT RANGE AP NOT AVBL
ERIE MUNI ARPT CLOUDY    21  18  89 CALM      30.28F
BOULDER MUN AP CLOUDY    28  18  64 CALM      30.27F
CENTENNIAL     CLOUDY    29  14  53 SE5       30.30S WCI  24
BROOMFIELD     CLEAR     37  14  38 SW3       30.29S
FORT COLLINS   CLOUDY    25  18  74 CALM      30.29S
LONGMONT       CLOUDY    19  13  78 CALM      30.31S
$$

COZ041-046-047-076>085-087-088-091400-
...PIKES PEAK/PALMER DIVIDE AND SOUTHERN FOOTHILLS...

CITY           SKY/WX    TMP DP  RH WIND       PRES   REMARKS
COLO. SPRINGS  CLOUDY    23  14  68 N9        30.34S WCI  13
A. F. ACADEMY  CLOUDY    14  10  83 N9        30.33S WCI   2
SCHRIEVER AFB  NOT AVBL
ELLICOTT       NOT AVBL
FALCON         NOT AVBL
FORT CARSON    CLOUDY    29  16  57 NW5       30.32S WCI  24
LIMON          CLOUDY    23  16  74 W15       30.31R WCI  10
MONUMENT HILL  CLOUDY    30  14  51 W8        30.34S WCI  23
TRINIDAD       CLOUDY    26  18  71 W14       30.36R WCI  14
$$

COZ042>045-048>051-090-091-091400-
...NORTHEAST COLORADO...

CITY           SKY/WX    TMP DP  RH WIND       PRES   REMARKS
GREELEY ARPT   CLOUDY    14   9  79 W3        30.31R
AKRON          CLEAR     29  21  72 W18       30.25R WCI  16
BURLINGTON     CLEAR     31  20  63 NW14      30.24R WCI  21
WRAY           CLEAR     33  26  75 W15       30.24R WCI  22
STERLING       CLEAR     37  27  65 NW15      30.26S
HOLYOKE        CLEAR     37  28  70 NW17G23   30.23R
FORT MORGAN    CLEAR     20  17  90 W12       30.30S WCI   8
$$

COZ086-089-092>099-091400-
...SOUTHEAST COLORADO...

CITY           SKY/WX    TMP DP  RH WIND       PRES   REMARKS
PUEBLO         CLOUDY    24  19  81 W10       30.35S WCI  14
LA JUNTA       CLEAR     27  22  81 W14       30.33S WCI  16
LAMAR          CLEAR     26  23  88 W9        30.30R WCI  17
SPRINGFIELD      N/A     31  23  72 W8        30.31R WCI  23
$$




USA.gov is the U.S. government's official web portal to all federal, state and local government web resources and services.